Year,Month,Day,Hour,Minute,Value (Times are PST for temperature in C)
2011,09,23,00,00,18.40
2011,09,23,00,01,18.40
2011,09,23,00,02,18.40
2011,09,23,00,03,18.50
2011,09,23,00,04,18.50
2011,09,23,00,05,18.50
2011,09,23,00,06,18.50
2011,09,23,00,07,18.40
2011,09,23,00,08,18.40
2011,09,23,00,09,18.50
2011,09,23,00,10,18.50
2011,09,23,00,11,18.50
2011,09,23,00,12,18.50
2011,09,23,00,13,18.50
2011,09,23,00,14,18.50
2011,09,23,00,15,18.60
2011,09,23,00,16,18.60
2011,09,23,00,17,18.60
2011,09,23,00,18,18.60
2011,09,23,00,19,18.70
2011,09,23,00,20,18.60
2011,09,23,00,21,18.70
2011,09,23,00,22,18.70
2011,09,23,00,23,18.70
2011,09,23,00,24,18.70
2011,09,23,00,25,18.70
2011,09,23,00,26,18.70
2011,09,23,00,27,18.70
2011,09,23,00,28,18.70
2011,09,23,00,29,18.70
2011,09,23,00,30,18.70
2011,09,23,00,31,18.60
2011,09,23,00,32,18.60
2011,09,23,00,33,18.60
2011,09,23,00,34,18.60
2011,09,23,00,35,18.60
2011,09,23,00,36,18.60
2011,09,23,00,37,18.60
2011,09,23,00,38,18.60
2011,09,23,00,39,18.70
2011,09,23,00,40,18.70
2011,09,23,00,41,18.70
2011,09,23,00,42,18.70
2011,09,23,00,43,18.70
2011,09,23,00,44,18.70
2011,09,23,00,45,18.70
2011,09,23,00,46,18.70
2011,09,23,00,47,18.70
2011,09,23,00,48,18.70
2011,09,23,00,49,18.70
2011,09,23,00,50,18.70
2011,09,23,00,51,18.80
2011,09,23,00,52,18.70
2011,09,23,00,53,18.80
2011,09,23,00,54,18.80
2011,09,23,00,55,18.70
2011,09,23,00,56,18.70
2011,09,23,00,57,18.70
2011,09,23,00,58,18.70
2011,09,23,01,05,18.60
2011,09,23,01,06,18.50
2011,09,23,01,07,18.40
2011,09,23,01,08,18.40
2011,09,23,01,09,18.30
2011,09,23,01,10,18.30
2011,09,23,01,11,18.30
2011,09,23,01,12,18.30
2011,09,23,01,13,18.30
2011,09,23,01,14,18.20
2011,09,23,01,15,18.20
2011,09,23,01,16,18.20
2011,09,23,01,17,18.20
2011,09,23,01,18,18.20
2011,09,23,01,19,18.20
2011,09,23,01,20,18.20
2011,09,23,01,21,18.20
2011,09,23,01,22,18.20
2011,09,23,01,23,18.10
2011,09,23,01,24,18.10
2011,09,23,01,25,18.10
2011,09,23,01,26,18.10
2011,09,23,01,27,18.10
2011,09,23,01,28,18.10
2011,09,23,01,29,18.10
2011,09,23,01,30,18.00
2011,09,23,01,31,18.00
2011,09,23,01,32,17.90
2011,09,23,01,33,17.90
2011,09,23,01,34,17.90
2011,09,23,01,35,17.90
2011,09,23,01,36,17.90
2011,09,23,01,37,17.90
2011,09,23,01,38,17.90
2011,09,23,01,39,17.90
2011,09,23,01,40,17.90
2011,09,23,01,41,17.90
2011,09,23,01,42,17.90
2011,09,23,01,43,17.90
2011,09,23,01,44,17.90
2011,09,23,01,45,17.90
2011,09,23,01,46,17.80
2011,09,23,01,47,17.80
2011,09,23,01,48,17.80
2011,09,23,01,49,17.80
2011,09,23,01,50,17.80
2011,09,23,01,51,17.80
2011,09,23,01,52,17.80
2011,09,23,01,53,17.70
2011,09,23,01,54,17.70
2011,09,23,01,55,17.70
2011,09,23,01,56,17.70
2011,09,23,01,57,17.70
2011,09,23,01,58,17.70
2011,09,23,01,59,17.70
2011,09,23,02,00,17.70
2011,09,23,02,01,17.70
2011,09,23,02,02,17.70
2011,09,23,02,03,17.70
2011,09,23,02,04,17.60
2011,09,23,02,05,17.70
2011,09,23,02,06,17.70
2011,09,23,02,07,17.60
2011,09,23,02,08,17.60
2011,09,23,02,09,17.70
2011,09,23,02,10,17.70
2011,09,23,02,11,17.70
2011,09,23,02,12,17.70
2011,09,23,02,13,17.70
2011,09,23,02,14,17.70
2011,09,23,02,15,17.70
2011,09,23,02,16,17.70
2011,09,23,02,17,17.70
2011,09,23,02,18,17.70
2011,09,23,02,19,17.80
2011,09,23,02,20,17.80
2011,09,23,02,21,17.80
2011,09,23,02,22,17.80
2011,09,23,02,23,17.90
2011,09,23,02,24,18.00
2011,09,23,02,25,18.10
2011,09,23,02,26,18.20
2011,09,23,02,27,18.20
2011,09,23,02,28,18.30
2011,09,23,02,29,18.30
2011,09,23,02,30,18.40
2011,09,23,02,31,18.40
2011,09,23,02,32,18.40
2011,09,23,02,33,18.40
2011,09,23,02,34,18.40
2011,09,23,02,35,18.40
2011,09,23,02,36,18.50
2011,09,23,02,37,18.50
2011,09,23,02,38,18.50
2011,09,23,02,39,18.50
2011,09,23,02,40,18.50
2011,09,23,02,41,18.60
2011,09,23,02,42,18.60
2011,09,23,02,43,18.60
2011,09,23,02,44,18.70
2011,09,23,02,45,18.70
2011,09,23,02,46,18.70
2011,09,23,02,47,18.70
2011,09,23,02,48,18.70
2011,09,23,02,49,18.70
2011,09,23,02,50,18.70
2011,09,23,02,51,18.70
2011,09,23,02,52,18.70
2011,09,23,02,53,18.70
2011,09,23,02,54,18.80
2011,09,23,02,55,18.80
2011,09,23,02,56,18.80
2011,09,23,02,57,18.80
2011,09,23,02,58,18.80
2011,09,23,02,59,18.80
2011,09,23,03,00,18.70
2011,09,23,03,01,18.70
2011,09,23,03,02,18.70
2011,09,23,03,03,18.70
2011,09,23,03,04,18.70
2011,09,23,03,05,18.80
2011,09,23,03,06,18.90
2011,09,23,03,07,18.90
2011,09,23,03,08,18.90
2011,09,23,03,09,18.90
2011,09,23,03,10,18.90
2011,09,23,03,11,18.90
2011,09,23,03,12,18.80
2011,09,23,03,13,18.80
2011,09,23,03,14,18.80
2011,09,23,03,15,18.80
2011,09,23,03,16,18.80
2011,09,23,03,17,18.90
2011,09,23,03,18,18.90
2011,09,23,03,19,18.90
2011,09,23,03,20,18.80
2011,09,23,03,21,18.80
2011,09,23,03,22,18.80
2011,09,23,03,23,18.80
2011,09,23,03,24,18.80
2011,09,23,03,25,18.80
2011,09,23,03,26,18.80
2011,09,23,03,27,18.80
2011,09,23,03,28,18.80
2011,09,23,03,29,18.80
2011,09,23,03,30,18.80
2011,09,23,03,31,18.80
2011,09,23,03,32,18.80
2011,09,23,03,33,18.80
2011,09,23,03,34,18.90
2011,09,23,03,35,18.90
2011,09,23,03,36,18.90
2011,09,23,03,37,18.90
2011,09,23,03,38,18.90
2011,09,23,03,39,18.80
2011,09,23,03,40,18.90
2011,09,23,03,41,18.90
2011,09,23,03,42,18.90
2011,09,23,03,43,18.90
2011,09,23,03,44,18.90
2011,09,23,03,45,18.90
2011,09,23,03,46,18.90
2011,09,23,03,47,18.90
2011,09,23,03,48,18.90
2011,09,23,03,49,18.90
2011,09,23,03,50,18.90
2011,09,23,03,51,18.90
2011,09,23,03,52,18.90
2011,09,23,03,53,18.90
2011,09,23,03,54,18.90
2011,09,23,03,55,18.90
2011,09,23,03,56,18.90
2011,09,23,03,57,18.90
2011,09,23,03,58,18.90
2011,09,23,03,59,18.90
2011,09,23,04,00,18.90
2011,09,23,04,01,18.90
2011,09,23,04,02,18.80
2011,09,23,04,03,18.80
2011,09,23,04,04,18.90
2011,09,23,04,05,18.90
2011,09,23,04,06,18.90
2011,09,23,04,07,18.90
2011,09,23,04,08,18.90
2011,09,23,04,09,18.90
2011,09,23,04,10,18.90
2011,09,23,04,11,19.00
2011,09,23,04,12,19.00
2011,09,23,04,13,19.00
2011,09,23,04,14,19.10
2011,09,23,04,15,19.10
2011,09,23,04,16,19.10
2011,09,23,04,17,19.10
2011,09,23,04,18,19.10
2011,09,23,04,19,19.10
2011,09,23,04,20,19.10
2011,09,23,04,21,19.10
2011,09,23,04,22,19.20
2011,09,23,04,23,19.20
2011,09,23,04,24,19.20
2011,09,23,04,25,19.20
2011,09,23,04,26,19.20
2011,09,23,04,27,19.20
2011,09,23,04,28,19.20
2011,09,23,04,29,19.20
2011,09,23,04,30,19.20
2011,09,23,04,31,19.30
2011,09,23,04,32,19.30
2011,09,23,04,33,19.30
2011,09,23,04,34,19.30
2011,09,23,04,35,19.30
2011,09,23,04,36,19.30
2011,09,23,04,37,19.30
2011,09,23,04,38,19.30
2011,09,23,04,39,19.30
2011,09,23,04,40,19.30
2011,09,23,04,41,19.30
2011,09,23,04,42,19.30
2011,09,23,04,43,19.30
2011,09,23,04,44,19.30
2011,09,23,04,45,19.30
2011,09,23,04,46,19.30
2011,09,23,04,47,19.40
2011,09,23,04,48,19.40
2011,09,23,04,49,19.40
2011,09,23,04,50,19.40
2011,09,23,04,51,19.40
2011,09,23,04,52,19.40
2011,09,23,04,53,19.40
2011,09,23,04,54,19.40
2011,09,23,04,55,19.40
2011,09,23,04,56,19.40
2011,09,23,04,57,19.30
2011,09,23,04,58,19.30
2011,09,23,04,59,19.30
2011,09,23,05,00,19.30
2011,09,23,05,01,19.30
2011,09,23,05,02,19.40
2011,09,23,05,03,19.40
2011,09,23,05,04,19.40
2011,09,23,05,05,19.40
2011,09,23,05,06,19.40
2011,09,23,05,07,19.40
2011,09,23,05,08,19.40
2011,09,23,05,09,19.40
2011,09,23,05,10,19.30
2011,09,23,05,11,19.30
2011,09,23,05,12,19.30
2011,09,23,05,13,19.30
2011,09,23,05,14,19.30
2011,09,23,05,15,19.30
2011,09,23,05,16,19.30
2011,09,23,05,17,19.30
2011,09,23,05,18,19.30
2011,09,23,05,19,19.30
2011,09,23,05,20,19.30
2011,09,23,05,21,19.40
2011,09,23,05,22,19.40
2011,09,23,05,23,19.40
2011,09,23,05,24,19.40
2011,09,23,05,25,19.50
2011,09,23,05,26,19.40
2011,09,23,05,27,19.40
2011,09,23,05,28,19.40
2011,09,23,05,29,19.40
2011,09,23,05,30,19.40
2011,09,23,05,31,19.40
2011,09,23,05,32,19.40
2011,09,23,05,33,19.40
2011,09,23,05,34,19.40
2011,09,23,05,35,19.40
2011,09,23,05,36,19.40
2011,09,23,05,37,19.30
2011,09,23,05,38,19.30
2011,09,23,05,39,19.30
2011,09,23,05,40,19.30
2011,09,23,05,41,19.30
2011,09,23,05,42,19.30
2011,09,23,05,43,19.30
2011,09,23,05,44,19.30
2011,09,23,05,45,19.30
2011,09,23,05,46,19.20
2011,09,23,05,47,19.20
2011,09,23,05,48,19.20
2011,09,23,05,49,19.20
2011,09,23,05,50,19.30
2011,09,23,05,51,19.30
2011,09,23,05,52,19.30
2011,09,23,05,53,19.20
2011,09,23,05,54,19.20
2011,09,23,05,55,19.30
2011,09,23,05,56,19.30
2011,09,23,05,57,19.20
2011,09,23,05,58,19.20
2011,09,23,05,59,19.20
2011,09,23,06,00,19.20
2011,09,23,06,01,19.10
2011,09,23,06,02,19.10
2011,09,23,06,03,19.10
2011,09,23,06,04,19.10
2011,09,23,06,05,19.10
2011,09,23,06,06,19.10
2011,09,23,06,07,19.20
2011,09,23,06,08,19.20
2011,09,23,06,09,19.20
2011,09,23,06,10,19.30
2011,09,23,06,11,19.40
2011,09,23,06,12,19.40
2011,09,23,06,13,19.50
2011,09,23,06,14,19.50
2011,09,23,06,15,19.50
2011,09,23,06,16,19.60
2011,09,23,06,17,19.60
2011,09,23,06,18,19.60
2011,09,23,06,19,19.60
2011,09,23,06,20,19.70
2011,09,23,06,21,19.70
2011,09,23,06,22,19.70
2011,09,23,06,23,19.70
2011,09,23,06,24,19.70
2011,09,23,06,25,19.70
2011,09,23,06,26,19.70
2011,09,23,06,27,19.70
2011,09,23,06,28,19.60
2011,09,23,06,29,19.60
2011,09,23,06,30,19.50
2011,09,23,06,31,19.40
2011,09,23,06,32,19.30
2011,09,23,06,33,19.30
2011,09,23,06,34,19.20
2011,09,23,06,35,19.20
2011,09,23,06,36,19.10
2011,09,23,06,37,19.10
2011,09,23,06,38,19.10
2011,09,23,06,39,19.00
2011,09,23,06,40,18.90
2011,09,23,06,41,18.90
2011,09,23,06,42,18.90
2011,09,23,06,43,18.90
2011,09,23,06,44,18.90
2011,09,23,06,45,19.00
2011,09,23,06,46,19.10
2011,09,23,06,47,19.10
2011,09,23,06,48,19.10
2011,09,23,06,49,19.20
2011,09,23,06,50,19.20
2011,09,23,06,51,19.20
2011,09,23,06,52,19.30
2011,09,23,06,53,19.30
2011,09,23,06,54,19.30
2011,09,23,06,55,19.30
2011,09,23,06,56,19.30
2011,09,23,06,57,19.30
2011,09,23,06,58,19.30
2011,09,23,06,59,19.30
2011,09,23,07,00,19.30
2011,09,23,07,01,19.40
2011,09,23,07,02,19.40
2011,09,23,07,03,19.50
2011,09,23,07,04,19.50
2011,09,23,07,05,19.60
2011,09,23,07,06,19.60
2011,09,23,07,07,19.60
2011,09,23,07,08,19.60
2011,09,23,07,09,19.60
2011,09,23,07,10,19.60
2011,09,23,07,11,19.70
2011,09,23,07,12,19.60
2011,09,23,07,13,19.60
2011,09,23,07,14,19.60
2011,09,23,07,15,19.60
2011,09,23,07,16,19.60
2011,09,23,07,17,19.60
2011,09,23,07,18,19.60
2011,09,23,07,19,19.50
2011,09,23,07,20,19.50
2011,09,23,07,21,19.40
2011,09,23,07,22,19.40
2011,09,23,07,23,19.40
2011,09,23,07,24,19.50
2011,09,23,07,25,19.50
2011,09,23,07,26,19.50
2011,09,23,07,27,19.60
2011,09,23,07,28,19.60
2011,09,23,07,29,19.60
2011,09,23,07,30,19.50
2011,09,23,07,31,19.50
2011,09,23,07,32,19.60
2011,09,23,07,33,19.60
2011,09,23,07,34,19.60
2011,09,23,07,35,19.60
2011,09,23,07,36,19.60
2011,09,23,07,37,19.60
2011,09,23,07,38,19.60
2011,09,23,07,39,19.60
2011,09,23,07,40,19.60
2011,09,23,07,41,19.60
2011,09,23,07,42,19.70
2011,09,23,07,43,19.70
2011,09,23,07,44,19.70
2011,09,23,07,45,19.70
2011,09,23,07,46,19.80
2011,09,23,07,47,19.80
2011,09,23,07,48,19.80
2011,09,23,07,49,19.80
2011,09,23,07,50,19.80
2011,09,23,07,51,19.80
2011,09,23,07,52,19.80
2011,09,23,07,53,19.80
2011,09,23,07,54,19.80
2011,09,23,07,55,19.80
2011,09,23,07,56,19.80
2011,09,23,07,57,19.80
2011,09,23,07,58,19.80
2011,09,23,07,59,19.80
2011,09,23,08,00,19.80
2011,09,23,08,01,19.80
2011,09,23,08,02,19.80
2011,09,23,08,03,19.80
2011,09,23,08,04,19.80
2011,09,23,08,05,19.80
2011,09,23,08,06,19.80
2011,09,23,08,07,19.80
2011,09,23,08,08,19.80
2011,09,23,08,09,19.70
2011,09,23,08,10,19.70
2011,09,23,08,11,19.70
2011,09,23,08,12,19.60
2011,09,23,08,13,19.60
2011,09,23,08,14,19.60
2011,09,23,08,15,19.50
2011,09,23,08,16,19.50
2011,09,23,13,15,19.90
2011,09,23,13,16,19.90
2011,09,23,13,17,19.80
2011,09,23,13,18,19.80
2011,09,23,13,19,19.80
2011,09,23,13,20,19.80
2011,09,23,13,21,19.80
2011,09,23,13,22,19.80
2011,09,23,13,23,19.80
2011,09,23,13,24,19.90
2011,09,23,13,25,19.90
2011,09,23,13,26,19.90
2011,09,23,13,27,19.90
2011,09,23,13,28,19.90
2011,09,23,13,29,20.00
2011,09,23,13,30,20.00
2011,09,23,13,31,19.90
2011,09,23,13,32,19.90
2011,09,23,13,33,19.90
2011,09,23,13,34,19.80
2011,09,23,13,35,19.80
2011,09,23,13,36,19.80
2011,09,23,13,37,19.80
2011,09,23,13,38,19.80
2011,09,23,13,39,19.80
2011,09,23,13,40,19.80
2011,09,23,13,41,19.90
2011,09,23,13,42,19.90
2011,09,23,13,43,19.90
2011,09,23,13,44,19.90
2011,09,23,13,45,20.00
2011,09,23,13,46,20.00
2011,09,23,13,47,20.10
2011,09,23,13,48,20.10
2011,09,23,13,49,20.10
2011,09,23,13,50,20.10
2011,09,23,13,51,20.10
2011,09,23,13,52,20.10
2011,09,23,13,53,20.10
2011,09,23,13,54,20.10
2011,09,23,13,55,20.10
2011,09,23,13,56,20.10
2011,09,23,13,57,20.10
2011,09,23,13,58,20.10
2011,09,23,13,59,20.10
2011,09,23,14,00,20.20
2011,09,23,14,01,20.10
2011,09,23,14,02,20.10
2011,09,23,14,03,20.10
2011,09,23,14,04,20.10
2011,09,23,14,05,20.10
2011,09,23,14,06,20.10
2011,09,23,14,07,20.10
2011,09,23,14,08,20.10
2011,09,23,14,09,20.00
2011,09,23,14,10,20.00
2011,09,23,14,11,19.90
2011,09,23,14,12,19.90
2011,09,23,14,13,19.90
2011,09,23,14,14,19.90
2011,09,23,14,15,19.90
2011,09,23,14,16,19.90
2011,09,23,14,17,19.90
2011,09,23,14,18,19.90
2011,09,23,14,19,19.90
2011,09,23,14,20,19.90
2011,09,23,14,21,20.00
2011,09,23,14,22,20.00
2011,09,23,14,23,20.10
2011,09,23,14,24,20.10
2011,09,23,14,25,20.00
2011,09,23,14,26,20.00
2011,09,23,14,27,20.10
2011,09,23,14,28,20.10
2011,09,23,14,29,20.20
2011,09,23,14,30,20.20
2011,09,23,14,31,20.20
2011,09,23,14,32,20.20
2011,09,23,14,33,20.30
2011,09,23,14,34,20.30
2011,09,23,14,35,20.30
2011,09,23,14,36,20.30
2011,09,23,14,37,20.30
2011,09,23,14,38,20.30
2011,09,23,14,39,20.30
2011,09,23,14,40,20.30
2011,09,23,14,41,20.30
2011,09,23,14,42,20.30
2011,09,23,14,43,20.30
2011,09,23,14,44,20.30
2011,09,23,14,45,20.30
2011,09,23,14,46,20.30
2011,09,23,14,47,20.20
2011,09,23,14,48,20.20
2011,09,23,14,49,20.20
2011,09,23,14,50,20.20
2011,09,23,14,51,20.20
2011,09,23,14,52,20.20
2011,09,23,14,53,20.20
2011,09,23,14,54,20.20
2011,09,23,14,55,20.20
2011,09,23,14,56,20.20
2011,09,23,14,57,20.20
2011,09,23,14,58,20.10
2011,09,23,14,59,20.20
2011,09,23,15,00,20.20
2011,09,23,15,01,20.10
2011,09,23,15,02,20.20
2011,09,23,15,03,20.20
2011,09,23,15,04,20.10
2011,09,23,15,05,20.10
2011,09,23,15,06,20.10
2011,09,23,15,07,20.10
2011,09,23,15,08,20.10
2011,09,23,15,09,20.00
2011,09,23,15,10,20.00
2011,09,23,15,11,20.00
2011,09,23,15,12,20.10
2011,09,23,15,13,20.10
2011,09,23,15,14,20.10
2011,09,23,15,15,20.20
2011,09,23,15,16,20.20
2011,09,23,15,17,20.20
2011,09,23,15,18,20.30
2011,09,23,15,19,20.30
2011,09,23,15,20,20.30
2011,09,23,15,21,20.40
2011,09,23,15,22,20.40
2011,09,23,15,23,20.40
2011,09,23,15,24,20.50
2011,09,23,15,25,20.50
2011,09,23,15,26,20.50
2011,09,23,15,27,20.60
2011,09,23,15,28,20.60
2011,09,23,15,29,20.60
2011,09,23,15,30,20.60
2011,09,23,15,31,20.60
2011,09,23,15,32,20.60
2011,09,23,15,33,20.60
2011,09,23,15,34,20.60
2011,09,23,15,35,20.60
2011,09,23,15,36,20.60
2011,09,23,15,37,20.60
2011,09,23,15,38,20.60
2011,09,23,15,39,20.60
2011,09,23,15,40,20.60
2011,09,23,15,41,20.60
2011,09,23,15,42,20.60
2011,09,23,15,43,20.60
2011,09,23,15,44,20.60
2011,09,23,15,45,20.60
2011,09,23,15,46,20.60
2011,09,23,15,47,20.60
2011,09,23,15,48,20.60
2011,09,23,15,49,20.70
2011,09,23,15,50,20.70
2011,09,23,15,51,20.70
2011,09,23,15,52,20.70
2011,09,23,15,53,20.70
2011,09,23,15,54,20.70
2011,09,23,15,55,20.70
2011,09,23,15,56,20.70
2011,09,23,15,57,20.70
2011,09,23,15,58,20.60
2011,09,23,15,59,20.60
2011,09,23,16,00,20.60
2011,09,23,16,01,20.60
2011,09,23,16,02,20.60
2011,09,23,16,03,20.60
2011,09,23,16,04,20.60
2011,09,23,16,05,20.60
2011,09,23,16,06,20.60
2011,09,23,16,07,20.60
2011,09,23,16,08,20.60
2011,09,23,16,09,20.60
2011,09,23,16,10,20.60
2011,09,23,16,11,20.60
2011,09,23,16,12,20.60
2011,09,23,16,13,20.50
2011,09,23,16,14,20.50
2011,09,23,16,15,20.50
2011,09,23,16,16,20.50
2011,09,23,16,17,20.40
2011,09,23,16,18,20.40
2011,09,23,16,19,20.40
2011,09,23,16,20,20.40
2011,09,23,16,21,20.40
2011,09,23,16,22,20.40
2011,09,23,16,23,20.40
2011,09,23,16,24,20.40
2011,09,23,16,25,20.40
2011,09,23,16,26,20.40
2011,09,23,16,27,20.40
2011,09,23,16,28,20.40
2011,09,23,16,29,20.40
2011,09,23,16,30,20.40
2011,09,23,16,31,20.50
2011,09,23,16,32,20.50
2011,09,23,16,33,20.50
2011,09,23,16,34,20.50
2011,09,23,16,35,20.50
2011,09,23,16,36,20.50
2011,09,23,16,37,20.40
2011,09,23,16,38,20.40
2011,09,23,16,39,20.40
2011,09,23,16,40,20.40
2011,09,23,16,41,20.40
2011,09,23,16,42,20.30
2011,09,23,16,43,20.30
2011,09,23,16,44,20.30
2011,09,23,16,45,20.20
2011,09,23,16,46,20.20
2011,09,23,16,47,20.20
2011,09,23,16,48,20.10
2011,09,23,16,49,20.10
2011,09,23,16,50,20.10
2011,09,23,16,51,20.10
2011,09,23,16,52,20.10
2011,09,23,16,53,20.10
2011,09,23,16,54,20.10
2011,09,23,16,55,20.10
2011,09,23,16,56,20.10
2011,09,23,16,57,20.00
2011,09,23,16,58,20.00
2011,09,23,16,59,20.00
2011,09,23,17,00,19.90
2011,09,23,17,01,19.90
2011,09,23,17,02,19.90
2011,09,23,17,03,19.90
2011,09,23,17,04,19.90
2011,09,23,17,05,19.90
2011,09,23,17,06,19.90
2011,09,23,17,07,19.90
2011,09,23,17,08,19.90
2011,09,23,17,09,19.90
2011,09,23,17,10,19.90
2011,09,23,17,11,19.90
2011,09,23,17,12,19.90
2011,09,23,17,13,19.90
2011,09,23,17,14,19.90
2011,09,23,17,15,19.80
2011,09,23,17,16,19.80
2011,09,23,17,17,19.80
2011,09,23,17,18,19.80
2011,09,23,17,19,19.80
2011,09,23,17,20,19.80
2011,09,23,17,21,19.80
2011,09,23,17,22,19.80
2011,09,23,17,23,19.70
2011,09,23,17,24,19.70
2011,09,23,17,25,19.70
2011,09,23,17,26,19.70
2011,09,23,17,27,19.60
2011,09,23,17,28,19.60
2011,09,23,17,29,19.50
2011,09,23,17,30,19.40
2011,09,23,17,31,19.40
2011,09,23,17,32,19.40
2011,09,23,17,33,19.30
2011,09,23,17,34,19.30
2011,09,23,17,35,19.30
2011,09,23,17,36,19.40
2011,09,23,17,37,19.40
2011,09,23,17,38,19.40
2011,09,23,17,39,19.40
2011,09,23,17,40,19.40
2011,09,23,17,41,19.40
2011,09,23,17,42,19.40
2011,09,23,17,43,19.40
2011,09,23,17,44,19.40
2011,09,23,17,45,19.40
2011,09,23,17,46,19.40
2011,09,23,17,47,19.40
2011,09,23,17,48,19.40
2011,09,23,17,49,19.40
2011,09,23,17,50,19.50
2011,09,23,17,51,19.60
2011,09,23,17,52,19.60
2011,09,23,17,53,19.60
2011,09,23,17,54,19.60
2011,09,23,17,55,19.60
2011,09,23,17,56,19.60
2011,09,23,17,57,19.60
2011,09,23,17,58,19.60
2011,09,23,17,59,19.60
2011,09,23,18,00,19.50
2011,09,23,18,01,19.60
2011,09,23,18,02,19.50
2011,09,23,18,03,19.50
2011,09,23,18,04,19.50
2011,09,23,18,05,19.50
2011,09,23,18,06,19.60
2011,09,23,18,07,19.60
2011,09,23,18,08,19.60
2011,09,23,18,09,19.60
2011,09,23,18,10,19.60
2011,09,23,18,11,19.60
2011,09,23,18,12,19.60
2011,09,23,18,13,19.60
2011,09,23,18,14,19.60
2011,09,23,18,15,19.60
2011,09,23,18,16,19.60
2011,09,23,18,17,19.60
2011,09,23,18,18,19.60
2011,09,23,18,19,19.60
2011,09,23,18,20,19.60
2011,09,23,18,21,19.60
2011,09,23,18,22,19.60
2011,09,23,18,23,19.60
2011,09,23,18,24,19.60
2011,09,23,18,25,19.60
2011,09,23,18,26,19.60
2011,09,23,18,27,19.60
2011,09,23,18,28,19.60
2011,09,23,18,29,19.60
2011,09,23,18,30,19.60
2011,09,23,18,31,19.60
2011,09,23,18,32,19.50
2011,09,23,18,33,19.50
2011,09,23,18,34,19.50
2011,09,23,18,35,19.40
2011,09,23,18,36,19.40
2011,09,23,18,37,19.40
2011,09,23,18,38,19.30
2011,09,23,18,39,19.30
2011,09,23,18,40,19.30
2011,09,23,18,41,19.20
2011,09,23,18,42,19.20
2011,09,23,18,43,19.10
2011,09,23,18,44,19.10
2011,09,23,18,45,19.10
2011,09,23,18,46,19.00
2011,09,23,18,47,19.00
2011,09,23,18,48,18.90
2011,09,23,18,49,18.90
2011,09,23,18,50,18.90
2011,09,23,18,51,18.90
2011,09,23,18,52,18.90
2011,09,23,18,53,18.80
2011,09,23,18,54,18.80
2011,09,23,18,55,18.80
2011,09,23,18,56,18.80
2011,09,23,18,57,18.70
2011,09,23,18,58,18.70
2011,09,23,18,59,18.70
2011,09,23,19,00,18.70
2011,09,23,19,01,18.70
2011,09,23,19,02,18.60
2011,09,23,19,03,18.60
2011,09,23,19,04,18.60
2011,09,23,19,05,18.60
2011,09,23,19,06,18.60
2011,09,23,19,07,18.60
2011,09,23,19,08,18.50
2011,09,23,19,09,18.50
2011,09,23,19,10,18.50
2011,09,23,19,11,18.50
2011,09,23,19,12,18.50
2011,09,23,19,13,18.40
2011,09,23,19,14,18.40
2011,09,23,19,15,18.40
2011,09,23,19,16,18.40
2011,09,23,19,17,18.40
2011,09,23,19,18,18.40
2011,09,23,19,19,18.40
2011,09,23,19,20,18.40
2011,09,23,19,21,18.40
2011,09,23,19,22,18.40
2011,09,23,19,23,18.40
2011,09,23,19,24,18.40
2011,09,23,19,25,18.40
2011,09,23,19,26,18.40
2011,09,23,19,27,18.40
2011,09,23,19,28,18.40
2011,09,23,19,29,18.40
2011,09,23,19,30,18.40
2011,09,23,19,31,18.40
2011,09,23,19,32,18.40
2011,09,23,19,33,18.40
2011,09,23,19,34,18.40
2011,09,23,19,35,18.40
2011,09,23,19,36,18.40
2011,09,23,19,37,18.40
2011,09,23,19,38,18.40
2011,09,23,19,39,18.40
2011,09,23,19,40,18.50
2011,09,23,19,41,18.60
2011,09,23,19,42,18.60
2011,09,23,19,43,18.70
2011,09,23,19,44,18.70
2011,09,23,19,45,18.80
2011,09,23,19,46,18.80
2011,09,23,19,47,18.90
2011,09,23,19,48,18.90
2011,09,23,19,49,18.90
2011,09,23,19,50,18.90
2011,09,23,19,51,18.90
2011,09,23,19,52,19.00
2011,09,23,19,53,19.00
2011,09,23,19,54,19.10
2011,09,23,19,55,19.10
2011,09,23,19,56,19.10
2011,09,23,19,57,19.10
2011,09,23,19,58,19.10
2011,09,23,19,59,19.10
2011,09,23,20,00,19.10
2011,09,23,20,01,19.20
2011,09,23,20,02,19.20
2011,09,23,20,03,19.20
2011,09,23,20,04,19.20
2011,09,23,20,05,19.20
2011,09,23,20,06,19.20
2011,09,23,20,07,19.20
2011,09,23,20,08,19.20
2011,09,23,20,09,19.20
2011,09,23,20,10,19.20
2011,09,23,20,11,19.20
2011,09,23,20,12,19.20
2011,09,23,20,13,19.20
2011,09,23,20,14,19.20
2011,09,23,20,15,19.10
2011,09,23,20,16,19.10
2011,09,23,20,17,19.10
2011,09,23,20,18,19.10
2011,09,23,20,20,19.10
2011,09,23,20,21,19.20
2011,09,23,20,22,19.20
2011,09,23,20,23,19.20
2011,09,23,20,24,19.20
2011,09,23,20,25,19.20
2011,09,23,20,26,19.20
2011,09,23,20,27,19.20
2011,09,23,20,28,19.20
2011,09,23,20,29,19.30
2011,09,23,20,30,19.30
2011,09,23,20,31,19.30
2011,09,23,20,32,19.30
2011,09,23,20,33,19.30
2011,09,23,20,34,19.30
2011,09,23,20,35,19.30
2011,09,23,20,36,19.30
2011,09,23,20,37,19.30
2011,09,23,20,38,19.30
2011,09,23,20,39,19.30
2011,09,23,20,40,19.30
2011,09,23,20,41,19.30
2011,09,23,20,42,19.30
2011,09,23,20,43,19.30
2011,09,23,20,44,19.30
2011,09,23,20,45,19.30
2011,09,23,20,46,19.30
2011,09,23,20,47,19.30
2011,09,23,20,48,19.30
2011,09,23,20,49,19.30
2011,09,23,20,50,19.30
2011,09,23,20,51,19.30
2011,09,23,20,52,19.30
2011,09,23,20,53,19.30
2011,09,23,20,54,19.30
2011,09,23,20,55,19.30
2011,09,23,20,56,19.30
2011,09,23,20,57,19.30
2011,09,23,20,58,19.30
2011,09,23,20,59,19.30
2011,09,23,21,00,19.30
2011,09,23,21,01,19.30
2011,09,23,21,02,19.30
2011,09,23,21,03,19.30
2011,09,23,21,04,19.30
2011,09,23,21,05,19.30
2011,09,23,21,06,19.30
2011,09,23,21,07,19.30
2011,09,23,21,08,19.30
2011,09,23,21,09,19.30
2011,09,23,21,10,19.20
2011,09,23,21,11,19.20
2011,09,23,21,12,19.20
2011,09,23,21,13,19.10
2011,09,23,21,14,19.00
2011,09,23,21,15,18.90
2011,09,23,21,16,18.90
2011,09,23,21,17,18.80
2011,09,23,21,18,18.80
2011,09,23,21,19,18.70
2011,09,23,21,20,18.70
2011,09,23,21,21,18.60
2011,09,23,21,22,18.60
2011,09,23,21,23,18.50
2011,09,23,21,24,18.40
2011,09,23,21,25,18.40
2011,09,23,21,26,18.40
2011,09,23,21,27,18.40
2011,09,23,21,28,18.30
2011,09,23,21,29,18.30
2011,09,23,21,30,18.30
2011,09,23,21,31,18.30
2011,09,23,21,32,18.20
2011,09,23,21,33,18.20
2011,09,23,21,34,18.20
2011,09,23,21,35,18.20
2011,09,23,21,36,18.20
2011,09,23,21,37,18.10
2011,09,23,21,38,18.10
2011,09,23,21,39,18.10
2011,09,23,21,40,18.10
2011,09,23,21,41,18.10
2011,09,23,21,42,18.10
2011,09,23,21,43,18.10
2011,09,23,21,44,18.10
2011,09,23,21,45,18.10
2011,09,23,21,46,18.10
2011,09,23,21,47,18.10
2011,09,23,21,48,18.10
2011,09,23,21,49,18.10
2011,09,23,21,50,18.10
2011,09,23,21,51,18.10
2011,09,23,21,52,18.10
2011,09,23,21,53,18.10
2011,09,23,21,54,18.20
2011,09,23,21,55,18.20
2011,09,23,21,56,18.20
2011,09,23,21,57,18.20
2011,09,23,21,58,18.30
2011,09,23,21,59,18.30
2011,09,23,22,00,18.40
2011,09,23,22,01,18.50
2011,09,23,22,02,18.70
2011,09,23,22,03,18.80
2011,09,23,22,04,18.90
2011,09,23,22,05,19.10
2011,09,23,22,06,19.20
2011,09,23,22,07,19.30
2011,09,23,22,08,19.30
2011,09,23,22,09,19.40
2011,09,23,22,10,19.50
2011,09,23,22,11,19.60
2011,09,23,22,12,19.60
2011,09,23,22,13,19.70
2011,09,23,22,14,19.70
2011,09,23,22,15,19.70
2011,09,23,22,16,19.80
2011,09,23,22,17,19.80
2011,09,23,22,18,19.80
2011,09,23,22,19,19.80
2011,09,23,22,20,19.80
2011,09,23,22,21,19.90
2011,09,23,22,22,19.90
2011,09,23,22,23,19.90
2011,09,23,22,24,19.90